Find Local Weather

World > North America > United States > Pennsylvania

Connie Mack Stadium, Pennsylvania Regional Weather

Lat: 40.00N, Lon: 75.17W
Wx Zone: PAZ071
Warning FLW WEATHER ALERT - (More Info. Click Here) Warning
Feedback
Expires:201810180400;;349799
ASUS41 KPHI 180313
RWRPHI

REGIONAL WEATHER ROUNDUP
NATIONAL WEATHER SERVICE MOUNT HOLLY NJ
1100 PM EDT WED OCT 17 2018

NOTE:  "FAIR" INDICATES FEW OR NO CLOUDS BELOW 12,000 FEET WITH NO
SIGNIFICANT WEATHER AND/OR OBSTRUCTIONS TO VISIBILITY.

 * = STATION DOES NOT REPORT PRECIPITATION (E.G. RAIN, SNOW, ETC.) 
        OR FOG.


PAZ043-044-047-054-055-060>062-066>071-180400-
EASTERN PENNSYLVANIA
  
CITY           SKY/WX    TMP DP  RH WIND       PRES   REMARKS
PHILADELPHIA   MOCLDY    52  32  46 NW17G28   30.18R                  
NORTH PHILA    FAIR      52  33  48 W10       30.17R                  
BLUE BELL*     FAIR      46  32  57 W8        30.18R                  
DOYLESTOWN     FAIR      47  33  58 NW8       30.14R                  
QUAKERTOWN*    CLEAR     46  34  61 CALM      30.15R                  
PERKASIE*      FAIR      46  32  57 W12G17    30.15R                  
POTTSTOWN      FAIR      47  32  56 W8G17     30.18R                  
LANCASTER      CLOUDY    50  36  58 N14G20    30.19R                  
COATESVILLE    FAIR      48  34  57 NW15      30.18R                  
READING        FAIR      47  35  63 NW13      30.17R                  
ALLENTOWN      FAIR      47  32  56 W13       30.14R                  
MOUNT POCONO   FAIR      37  27  67 NW20G26   30.08R WCI  27          
HAZLETON       CLOUDY    39  32  75 W6        30.16R WCI  35          
LEHIGHTON      FAIR      45  32  61 W7        30.17R                  
WILKES BARRE   MOCLDY    43  27  53 NW10      30.14R                  

$$

SKY/WX - Weather  TMP - Temperature  DP - Dew Point  RH - Relative Humidity
WIND - Wind Direction/Speed PRES - Barometric Pressure
Opt in/Opt out of Taboola Video Ads